Time,TemperatureF,DewpointF,PressureIn,WindDirection,WindDirectionDegrees,WindSpeedMPH,WindSpeedGustMPH,Humidity,HourlyPrecipIn,Conditions,Clouds,dailyrainin,SolarRadiationWatts/m^2,SoftwareType,DateUTC
2013-01-21 00:08:00,63.3,56.0,30.09,NNE,21,0.0,0.0,78,0.00,,,0.00,0,weatherlink.com 1.10,2013-01-21 05:08:00,
2013-01-21 00:23:00,63.4,57.0,30.07,NNE,21,0.0,1.0,79,0.00,,,0.00,0,weatherlink.com 1.10,2013-01-21 05:23:00,
2013-01-21 00:53:00,63.0,57.0,30.08,NNE,19,0.0,1.0,80,0.00,,,0.00,0,weatherlink.com 1.10,2013-01-21 05:53:00,
2013-01-21 01:08:00,62.4,57.0,30.08,NNE,19,0.0,1.0,81,0.00,,,0.00,0,weatherlink.com 1.10,2013-01-21 06:08:00,
2013-01-21 01:23:00,62.6,57.0,30.07,NNE,19,0.0,1.0,82,0.00,,,0.00,0,weatherlink.com 1.10,2013-01-21 06:23:00,
2013-01-21 01:38:00,62.1,57.0,30.07,NNW,335,0.0,2.0,82,0.00,,,0.00,0,weatherlink.com 1.10,2013-01-21 06:38:00,
2013-01-21 01:53:00,62.0,57.0,30.07,NNW,335,0.0,1.0,83,0.00,,,0.00,0,weatherlink.com 1.10,2013-01-21 06:53:00,
2013-01-21 02:08:00,61.9,57.0,30.07,NNW,335,0.0,0.0,84,0.00,,,0.00,0,weatherlink.com 1.10,2013-01-21 07:08:00,
2013-01-21 02:23:00,62.2,57.0,30.06,NNW,335,0.0,0.0,84,0.00,,,0.00,0,weatherlink.com 1.10,2013-01-21 07:23:00,
2013-01-21 02:38:00,62.4,58.0,30.06,NNW,335,0.0,0.0,84,0.00,,,0.00,0,weatherlink.com 1.10,2013-01-21 07:38:00,
2013-01-21 02:53:00,62.2,57.0,30.05,NNW,335,0.0,0.0,84,0.00,,,0.00,0,weatherlink.com 1.10,2013-01-21 07:53:00,
2013-01-21 03:08:00,61.8,57.0,30.05,NNW,335,0.0,0.0,84,0.00,,,0.00,0,weatherlink.com 1.10,2013-01-21 08:08:00,
2013-01-21 03:23:00,61.1,57.0,30.04,NNW,335,0.0,0.0,86,0.00,,,0.00,0,weatherlink.com 1.10,2013-01-21 08:23:00,
2013-01-21 03:38:00,60.4,57.0,30.04,NNW,335,0.0,0.0,87,0.00,,,0.00,0,weatherlink.com 1.10,2013-01-21 08:38:00,
2013-01-21 03:53:00,60.7,57.0,30.04,NNW,335,0.0,0.0,88,0.00,,,0.00,0,weatherlink.com 1.10,2013-01-21 08:53:00,
2013-01-21 04:08:00,61.0,58.0,30.04,NNW,335,0.0,0.0,88,0.00,,,0.00,0,weatherlink.com 1.10,2013-01-21 09:08:00,
2013-01-21 04:25:00,61.6,58.0,30.04,NNW,335,0.0,0.0,88,0.00,,,0.00,0,weatherlink.com 1.10,2013-01-21 09:25:00,
2013-01-21 04:38:00,61.7,58.0,30.03,NNW,335,0.0,1.0,87,0.00,,,0.00,0,weatherlink.com 1.10,2013-01-21 09:38:00,
2013-01-21 04:54:00,61.8,58.0,30.03,NNW,335,0.0,0.0,86,0.00,,,0.00,0,weatherlink.com 1.10,2013-01-21 09:54:00,
2013-01-21 05:09:00,61.9,58.0,30.03,NNW,335,0.0,1.0,87,0.00,,,0.00,0,weatherlink.com 1.10,2013-01-21 10:09:00,
2013-01-21 05:24:00,61.9,58.0,30.03,NNW,335,0.0,1.0,87,0.00,,,0.00,0,weatherlink.com 1.10,2013-01-21 10:24:00,
2013-01-21 05:39:00,61.8,58.0,30.03,NNW,335,0.0,0.0,87,0.00,,,0.00,0,weatherlink.com 1.10,2013-01-21 10:39:00,
2013-01-21 05:54:00,61.8,58.0,30.03,NNW,335,0.0,1.0,87,0.00,,,0.00,0,weatherlink.com 1.10,2013-01-21 10:54:00,
2013-01-21 06:09:00,61.9,58.0,30.04,NNW,335,0.0,1.0,87,0.00,,,0.00,0,weatherlink.com 1.10,2013-01-21 11:09:00,
2013-01-21 06:24:00,62.0,58.0,30.05,NNW,339,0.0,2.0,87,0.00,,,0.00,0,weatherlink.com 1.10,2013-01-21 11:24:00,
2013-01-21 06:39:00,62.0,58.0,30.05,North,355,0.0,2.0,87,0.00,,,0.00,0,weatherlink.com 1.10,2013-01-21 11:39:00,
2013-01-21 06:54:00,61.4,58.0,30.06,North,355,0.0,0.0,88,0.00,,,0.00,0,weatherlink.com 1.10,2013-01-21 11:54:00,
2013-01-21 07:09:00,61.4,58.0,30.06,North,355,0.0,0.0,88,0.00,,,0.00,0,weatherlink.com 1.10,2013-01-21 12:09:00,
2013-01-21 07:24:00,60.9,58.0,30.06,North,355,0.0,0.0,89,0.00,,,0.00,0,weatherlink.com 1.10,2013-01-21 12:24:00,
2013-01-21 07:39:00,61.3,58.0,30.07,North,355,0.0,1.0,89,0.00,,,0.00,11,weatherlink.com 1.10,2013-01-21 12:39:00,
2013-01-21 07:54:00,61.5,58.0,30.07,WNW,299,0.0,1.0,89,0.00,,,0.00,35,weatherlink.com 1.10,2013-01-21 12:54:00,
2013-01-21 08:09:00,61.8,59.0,30.07,NW,313,0.0,3.0,89,0.00,,,0.00,44,weatherlink.com 1.10,2013-01-21 13:09:00,
2013-01-21 08:24:00,62.5,59.0,30.07,NW,316,0.0,2.0,88,0.00,,,0.00,116,weatherlink.com 1.10,2013-01-21 13:24:00,
2013-01-21 08:39:00,63.8,59.0,30.07,NW,325,1.0,4.0,85,0.00,,,0.00,121,weatherlink.com 1.10,2013-01-21 13:39:00,
2013-01-21 08:54:00,65.2,59.0,30.08,NNE,24,2.0,3.0,81,0.00,,,0.00,229,weatherlink.com 1.10,2013-01-21 13:54:00,
2013-01-21 09:09:00,65.6,59.0,30.08,NE,38,2.0,4.0,80,0.00,,,0.00,209,weatherlink.com 1.10,2013-01-21 14:09:00,
2013-01-21 09:24:00,67.1,60.0,30.09,NE,44,1.0,4.0,79,0.00,,,0.00,313,weatherlink.com 1.10,2013-01-21 14:24:00,
2013-01-21 09:39:00,67.9,60.0,30.09,NNE,23,3.0,3.0,76,0.00,,,0.00,373,weatherlink.com 1.10,2013-01-21 14:39:00,
2013-01-21 09:54:00,68.6,60.0,30.09,ENE,57,2.0,4.0,74,0.00,,,0.00,397,weatherlink.com 1.10,2013-01-21 14:54:00,
2013-01-21 10:09:00,68.7,61.0,30.10,NNE,19,0.0,3.0,77,0.00,,,0.00,439,weatherlink.com 1.10,2013-01-21 15:09:00,
2013-01-21 10:24:00,70.9,62.0,30.10,East,96,2.0,5.0,74,0.00,,,0.00,494,weatherlink.com 1.10,2013-01-21 15:24:00,
2013-01-21 10:39:00,71.8,62.0,30.10,ESE,105,1.0,3.0,72,0.00,,,0.00,522,weatherlink.com 1.10,2013-01-21 15:39:00,
2013-01-21 10:54:00,72.9,63.0,30.09,North,351,0.0,3.0,72,0.00,,,0.00,557,weatherlink.com 1.10,2013-01-21 15:54:00,
2013-01-21 11:09:00,72.3,63.0,30.09,NE,49,1.0,4.0,72,0.00,,,0.00,545,weatherlink.com 1.10,2013-01-21 16:09:00,
2013-01-21 11:24:00,72.0,62.0,30.08,West,267,5.0,6.0,71,0.00,,,0.00,179,weatherlink.com 1.10,2013-01-21 16:24:00,
2013-01-21 11:39:00,72.6,62.0,30.08,WSW,238,4.0,7.0,70,0.00,,,0.00,343,weatherlink.com 1.10,2013-01-21 16:39:00,
2013-01-21 11:54:00,70.0,60.0,30.09,SW,227,3.0,11.0,70,0.00,,,0.00,301,weatherlink.com 1.10,2013-01-21 16:54:00,
2013-01-21 12:09:00,70.8,61.0,30.07,SSW,210,4.0,11.0,71,0.00,,,0.00,643,weatherlink.com 1.10,2013-01-21 17:09:00,
2013-01-21 12:24:00,71.9,61.0,30.07,NW,310,3.0,11.0,69,0.00,,,0.00,766,weatherlink.com 1.10,2013-01-21 17:24:00,
2013-01-21 12:39:00,71.9,61.0,30.06,WNW,296,4.0,11.0,68,0.00,,,0.00,745,weatherlink.com 1.10,2013-01-21 17:39:00,
2013-01-21 12:54:00,72.5,61.0,30.05,WNW,291,5.0,10.0,68,0.00,,,0.00,584,weatherlink.com 1.10,2013-01-21 17:54:00,
2013-01-21 13:09:00,72.6,62.0,30.04,WNW,298,9.0,10.0,69,0.00,,,0.00,754,weatherlink.com 1.10,2013-01-21 18:09:00,
2013-01-21 13:24:00,71.5,61.0,30.04,West,264,3.0,9.0,69,0.00,,,0.00,308,weatherlink.com 1.10,2013-01-21 18:24:00,
2013-01-21 13:39:00,70.2,60.0,30.04,WNW,290,5.0,8.0,71,0.00,,,0.00,239,weatherlink.com 1.10,2013-01-21 18:39:00,
2013-01-21 13:54:00,71.1,62.0,30.04,North,355,2.0,9.0,73,0.00,,,0.00,701,weatherlink.com 1.10,2013-01-21 18:54:00,
2013-01-21 14:10:00,70.7,62.0,30.04,WNW,290,2.0,9.0,74,0.00,,,0.00,522,weatherlink.com 1.10,2013-01-21 19:10:00,
2013-01-21 14:25:00,70.8,61.0,30.03,West,278,5.0,9.0,71,0.00,,,0.00,295,weatherlink.com 1.10,2013-01-21 19:25:00,
2013-01-21 14:40:00,70.2,61.0,30.03,West,280,4.0,9.0,72,0.00,,,0.00,336,weatherlink.com 1.10,2013-01-21 19:40:00,
2013-01-21 14:55:00,69.7,61.0,30.03,West,261,7.0,10.0,74,0.00,,,0.00,313,weatherlink.com 1.10,2013-01-21 19:55:00,
2013-01-21 15:10:00,68.9,61.0,30.03,NNW,338,4.0,8.0,76,0.00,,,0.00,318,weatherlink.com 1.10,2013-01-21 20:10:00,
2013-01-21 15:25:00,68.5,61.0,30.03,West,275,2.0,10.0,76,0.00,,,0.00,258,weatherlink.com 1.10,2013-01-21 20:25:00,
2013-01-21 15:40:00,67.6,61.0,30.03,WNW,293,3.0,9.0,78,0.00,,,0.00,197,weatherlink.com 1.10,2013-01-21 20:40:00,
2013-01-21 15:55:00,67.4,61.0,30.03,NW,319,4.0,9.0,79,0.00,,,0.00,253,weatherlink.com 1.10,2013-01-21 20:55:00,
2013-01-21 16:10:00,66.9,61.0,30.04,WNW,290,4.0,7.0,80,0.00,,,0.00,188,weatherlink.com 1.10,2013-01-21 21:10:00,
2013-01-21 16:25:00,65.5,58.0,30.04,WNW,285,5.0,10.0,78,0.00,,,0.00,192,weatherlink.com 1.10,2013-01-21 21:25:00,
2013-01-21 16:40:00,65.0,58.0,30.04,WNW,292,2.0,10.0,78,0.00,,,0.00,135,weatherlink.com 1.10,2013-01-21 21:40:00,
2013-01-21 16:55:00,64.8,57.0,30.04,West,274,9.0,9.0,77,0.00,,,0.00,90,weatherlink.com 1.10,2013-01-21 21:55:00,
2013-01-21 17:10:00,64.6,57.0,30.04,NNW,346,1.0,6.0,77,0.00,,,0.00,81,weatherlink.com 1.10,2013-01-21 22:10:00,
2013-01-21 17:25:00,63.9,56.0,30.04,NW,325,4.0,8.0,76,0.00,,,0.00,40,weatherlink.com 1.10,2013-01-21 22:25:00,
2013-01-21 17:40:00,63.4,55.0,30.04,North,355,2.0,8.0,75,0.00,,,0.00,25,weatherlink.com 1.10,2013-01-21 22:40:00,
2013-01-21 17:55:00,63.2,56.0,30.05,WNW,283,6.0,7.0,76,0.00,,,0.00,9,weatherlink.com 1.10,2013-01-21 22:55:00,
2013-01-21 18:10:00,62.9,55.0,30.05,WNW,289,1.0,7.0,76,0.00,,,0.00,0,weatherlink.com 1.10,2013-01-21 23:10:00,
2013-01-21 18:25:00,62.3,55.0,30.05,WNW,293,2.0,6.0,76,0.00,,,0.00,0,weatherlink.com 1.10,2013-01-21 23:25:00,
2013-01-21 18:39:00,61.8,55.0,30.05,WNW,288,1.0,6.0,77,0.00,,,0.00,0,weatherlink.com 1.10,2013-01-21 23:39:00,
2013-01-21 18:55:00,61.3,54.0,30.05,WNW,291,1.0,4.0,77,0.00,,,0.00,0,weatherlink.com 1.10,2013-01-21 23:55:00,
2013-01-21 19:10:00,60.6,54.0,30.05,NW,321,1.0,5.0,78,0.00,,,0.00,0,weatherlink.com 1.10,2013-01-22 00:10:00,
2013-01-21 19:25:00,60.7,54.0,30.05,NW,307,0.0,5.0,78,0.00,,,0.00,0,weatherlink.com 1.10,2013-01-22 00:25:00,
2013-01-21 19:40:00,60.3,53.0,30.05,WNW,303,0.0,3.0,78,0.00,,,0.00,0,weatherlink.com 1.10,2013-01-22 00:40:00,
2013-01-21 19:55:00,59.9,53.0,30.05,NW,313,0.0,3.0,79,0.00,,,0.00,0,weatherlink.com 1.10,2013-01-22 00:55:00,
2013-01-21 20:10:00,59.0,53.0,30.05,NW,313,0.0,3.0,81,0.00,,,0.00,0,weatherlink.com 1.10,2013-01-22 01:10:00,
2013-01-21 20:24:00,58.3,53.0,30.06,NW,313,0.0,2.0,83,0.00,,,0.00,0,weatherlink.com 1.10,2013-01-22 01:24:00,
2013-01-21 20:40:00,58.4,53.0,30.06,NW,308,0.0,3.0,83,0.00,,,0.00,0,weatherlink.com 1.10,2013-01-22 01:40:00,
2013-01-21 20:55:00,58.8,54.0,30.07,NW,311,1.0,3.0,83,0.00,,,0.00,0,weatherlink.com 1.10,2013-01-22 01:55:00,
2013-01-21 21:10:00,59.2,54.0,30.08,WNW,293,1.0,3.0,84,0.00,,,0.00,0,weatherlink.com 1.10,2013-01-22 02:10:00,
2013-01-21 21:25:00,59.9,55.0,30.07,WNW,289,2.0,4.0,83,0.00,,,0.00,0,weatherlink.com 1.10,2013-01-22 02:25:00,
2013-01-21 21:40:00,60.3,55.0,30.09,NW,315,3.0,6.0,82,0.00,,,0.00,0,weatherlink.com 1.10,2013-01-22 02:40:00,
2013-01-21 21:55:00,61.1,55.0,30.08,NW,306,6.0,9.0,79,0.00,,,0.00,0,weatherlink.com 1.10,2013-01-22 02:55:00,
2013-01-21 22:10:00,61.0,54.0,30.08,West,281,1.0,6.0,78,0.00,,,0.00,0,weatherlink.com 1.10,2013-01-22 03:10:00,
2013-01-21 22:25:00,60.8,54.0,30.09,NW,311,1.0,11.0,78,0.00,,,0.00,0,weatherlink.com 1.10,2013-01-22 03:25:00,
2013-01-21 22:40:00,60.8,54.0,30.09,NNW,346,3.0,10.0,77,0.00,,,0.00,0,weatherlink.com 1.10,2013-01-22 03:40:00,
2013-01-21 22:55:00,60.9,53.0,30.08,NW,307,2.0,8.0,76,0.00,,,0.00,0,weatherlink.com 1.10,2013-01-22 03:55:00,
2013-01-21 23:10:00,60.5,53.0,30.09,NW,319,1.0,6.0,76,0.00,,,0.00,0,weatherlink.com 1.10,2013-01-22 04:10:00,
2013-01-21 23:25:00,60.1,53.0,30.09,NW,311,3.0,6.0,77,0.00,,,0.00,0,weatherlink.com 1.10,2013-01-22 04:25:00,
2013-01-21 23:40:00,59.9,53.0,30.10,NW,325,1.0,5.0,77,0.00,,,0.00,0,weatherlink.com 1.10,2013-01-22 04:40:00,
2013-01-21 23:55:00,59.6,53.0,30.09,NNW,342,0.0,4.0,78,0.00,,,0.00,0,weatherlink.com 1.10,2013-01-22 04:55:00,